カタログに戻る

STARLINK-35281

運用中通信VLEO
NORAD 65824·PAYLOAD·🇺🇸 United States

打ち上げ Sep 29, 2025 から Vandenberg Space Force Base

Loading…

次のパス (今後24時間)

TLE

最新Source: CelesTrak SupGP

元期: Sep 14, 2026, 14:37 UTC

1 65824C 25221B   26257.60951389  .00022540  00000+0  66613-3 0  2574
2 65824  53.1575 288.9836 0001259  75.6550 298.8004 15.34371241    15

AllMySatでSTARLINK-35281をリアルタイム追跡

Download on the App Store